User: anonymous   Login
Location: Hale Hill Observatory
(39.3806°N, 86.8431°W)
Time: 02:39:55
(UTC-04:00)
Language:

Cosmos 990 Rocket - Orbit

View from above orbital plane
View from above orbital plane
View from above satellite
View from above satellite

Ground track
Ground track

The orbit data is extracted from the following two-line orbital elements,

1 10677U 78019B   17232.85228707  .00000061  00000-0  27852-4 0  9995
2 10677  74.0383 181.9440 0016414 242.3110 117.6380 14.40026106 71800
Epoch (UTC): 20 August 2017 20:27:17
Eccentricity: 0.0016414
inclination: 74.0383°
perigee height: 747 km
apogee height: 770 km
right ascension of ascending node: 181.9440°
argument of perigee: 242.3110°
revolutions per day: 14.40026106
mean anomaly at epoch: 117.6380°
orbit number at epoch: 7180

The dashed part of the orbit path shows where the satellite is in the earth's shadow,  

DLR